Location: Cheching
(60.0667°N, 164.2167°W)
Time: 15:17:44
(UTC+00:00)

O/OREOS (USA 219) - Pass Details

Date: 23 January 2021
Orbit: 621 x 646 km, 72.0° (Epoch: 22 May)

Event Time Altitude Azimuth Distance (km) Brightness Sun altitude
Rises 03:57:31 0° 317° (NW) 2,959 ? -8.3°
Reaches altitude 10° 04:00:28 10° 298° (WNW) 2,039 ? -8.6°
Maximum altitude 04:03:23 17° 258° (WSW) 1,617 ? -8.9°
Drops below altitude 10° 04:06:17 10° 218° (SW) 2,020 ? -9.3°
Sets 04:09:12 0° 199° (SSW) 2,917 ? -9.6°
